When you browse on this site, cookies collect data to enhance your experience and personalize the content and advertising you see.
Visit our Privacy Policy to learn more. By continuing to use the site, you agree to this use of cookies and data.
  • In Switzerland
  • List of Countries
  • For 7 days
  • Water Temperature
  • Weather Map
  • Weather Widgets
  • user-avatar
    Login

    Hourly Weather Kolyshkino

    Today, 22 September, Sunday

    Time Temperature Precipitation Wind Pressure Humidity
    00:00 +4°C° 0.4 mm 6 mps 737 mmHg 94%
    01:00 +5°C° 0.4 mm 5 mps 736 mmHg 94%
    02:00 +5°C° 0 mm 5 mps 735 mmHg 92%
    03:00 +5°C° 0.1 mm 5 mps 734 mmHg 93%
    04:00 +6°C° 0.1 mm 5 mps 734 mmHg 94%
    05:00 +6°C° 0.1 mm 5 mps 733 mmHg 94%
    06:00 +6°C° 0.1 mm 5 mps 733 mmHg 92%
    07:00 +6°C° 0.1 mm 5 mps 733 mmHg 90%
    08:00 +5°C° 0.1 mm 6 mps 733 mmHg 88%
    09:00 +5°C° 0.1 mm 7 mps 734 mmHg 84%
    10:00 +5°C° 0.1 mm 8 mps 734 mmHg 80%
    11:00 +5°C° 0.1 mm 9 mps 734 mmHg 75%
    12:00 +6°C° 0.1 mm 9 mps 735 mmHg 71%
    13:00 +6°C° 0.1 mm 9 mps 735 mmHg 66%
    14:00 +6°C° 0.1 mm 9 mps 735 mmHg 62%
    15:00 +6°C° 0.1 mm 8 mps 736 mmHg 65%
    16:00 +5°C° 0.1 mm 7 mps 736 mmHg 68%
    17:00 +4°C° 0.1 mm 6 mps 737 mmHg 71%
    18:00 +3°C° 0 mm 5 mps 737 mmHg 73%
    19:00 +2°C° 0 mm 5 mps 738 mmHg 76%
    20:00 +1°C° 0 mm 4 mps 739 mmHg 79%
    21:00 0°C° 0 mm 4 mps 739 mmHg 81%
    22:00 0°C° 0 mm 4 mps 739 mmHg 83%
    23:00 0°C° 0 mm 4 mps 740 mmHg 86%

    Tomorrow, 23 September, Monday

    Time Temperature Precipitation Wind Pressure Humidity
    00:00 -1°C° 0 mm 4 mps 740 mmHg 88%
    01:00 -1°C° 0 mm 4 mps 741 mmHg 90%
    02:00 -1°C° 0 mm 4 mps 742 mmHg 93%
    03:00 -1°C° 0 mm 4 mps 742 mmHg 92%
    04:00 -1°C° 0 mm 4 mps 742 mmHg 92%
    05:00 -1°C° 0 mm 4 mps 743 mmHg 91%
    06:00 -1°C° 0 mm 4 mps 743 mmHg 87%
    07:00 0°C° 0 mm 4 mps 744 mmHg 82%
    08:00 +1°C° 0 mm 5 mps 744 mmHg 78%
    09:00 +2°C° 0 mm 5 mps 744 mmHg 73%
    10:00 +3°C° 0 mm 5 mps 745 mmHg 68%
    11:00 +6°C° 0 mm 5 mps 745 mmHg 63%
    12:00 +6°C° 0 mm 5 mps 745 mmHg 61%
    13:00 +7°C° 0 mm 5 mps 745 mmHg 59%
    14:00 +8°C° 0 mm 5 mps 745 mmHg 57%
    15:00 +7°C° 0 mm 5 mps 745 mmHg 61%
    16:00 +6°C° 0 mm 4 mps 745 mmHg 65%
    17:00 +5°C° 0 mm 3 mps 745 mmHg 69%
    18:00 +4°C° 0 mm 3 mps 746 mmHg 72%
    19:00 +4°C° 0 mm 2 mps 746 mmHg 75%
    20:00 +3°C° 0 mm 2 mps 746 mmHg 78%
    21:00 +3°C° 0 mm 2 mps 746 mmHg 78%
    22:00 +3°C° 0 mm 2 mps 746 mmHg 78%
    23:00 +4°C° 0 mm 1 mps 746 mmHg 78%

    Day after tomorrow, 24 September, Tuesday

    Time Temperature Precipitation Wind Pressure Humidity
    00:00 +2°C° 0 mm 2 mps 746 mmHg 81%
    01:00 +1°C° 0 mm 2 mps 746 mmHg 84%
    02:00 +1°C° 0 mm 2 mps 746 mmHg 87%
    03:00 -1°C° 0 mm 2 mps 746 mmHg 88%
    04:00 -1°C° 0 mm 2 mps 746 mmHg 89%
    05:00 -1°C° 0 mm 2 mps 746 mmHg 90%
    06:00 0°C° 0 mm 3 mps 746 mmHg 86%
    07:00 +1°C° 0 mm 3 mps 746 mmHg 82%
    08:00 +3°C° 0 mm 3 mps 746 mmHg 77%
    09:00 +3°C° 0 mm 3 mps 746 mmHg 75%
    10:00 +4°C° 0 mm 3 mps 746 mmHg 74%
    11:00 +4°C° 0 mm 3 mps 746 mmHg 72%
    12:00 +5°C° 0.1 mm 3 mps 746 mmHg 68%
    13:00 +5°C° 0.1 mm 3 mps 746 mmHg 64%
    14:00 +6°C° 0.1 mm 4 mps 746 mmHg 60%
    15:00 +5°C° 0 mm 3 mps 746 mmHg 64%
    16:00 +5°C° 0 mm 2 mps 746 mmHg 68%
    17:00 +5°C° 0 mm 2 mps 746 mmHg 73%
    18:00 +4°C° 0 mm 2 mps 746 mmHg 77%
    19:00 +3°C° 0 mm 2 mps 746 mmHg 82%
    20:00 +2°C° 0 mm 2 mps 746 mmHg 86%
    21:00 +2°C° 0 mm 1 mps 746 mmHg 88%
    22:00 +2°C° 0 mm 1 mps 746 mmHg 90%
    23:00 +2°C° 0 mm 1 mps 746 mmHg 92%

    25 September, Wednesday

    Time Temperature Precipitation Wind Pressure Humidity
    00:00 +1°C° 0 mm 1 mps 746 mmHg 92%
    01:00 +1°C° 0 mm 1 mps 746 mmHg 92%
    02:00 +1°C° 0 mm 1 mps 746 mmHg 93%
    03:00 +1°C° 0 mm 1 mps 746 mmHg 93%
    04:00 +1°C° 0 mm 1 mps 746 mmHg 93%
    05:00 0°C° 0 mm 1 mps 746 mmHg 93%
    06:00 +2°C° 0 mm 1 mps 747 mmHg 87%
    07:00 +4°C° 0 mm 1 mps 747 mmHg 82%
    08:00 +4°C° 0 mm 2 mps 747 mmHg 76%
    09:00 +6°C° 0 mm 2 mps 747 mmHg 70%
    10:00 +7°C° 0 mm 2 mps 747 mmHg 63%
    11:00 +8°C° 0 mm 2 mps 747 mmHg 57%
    12:00 +9°C° 0 mm 2 mps 747 mmHg 56%
    13:00 +9°C° 0 mm 2 mps 747 mmHg 54%
    14:00 +9°C° 0 mm 2 mps 746 mmHg 53%
    15:00 +8°C° 0 mm 2 mps 746 mmHg 58%
    16:00 +8°C° 0 mm 1 mps 746 mmHg 63%
    17:00 +7°C° 0 mm 1 mps 746 mmHg 68%
    18:00 +6°C° 0 mm 1 mps 746 mmHg 71%
    19:00 +5°C° 0 mm 1 mps 746 mmHg 74%
    20:00 +5°C° 0 mm 1 mps 746 mmHg 77%
    21:00 +5°C° 0 mm 1 mps 747 mmHg 76%
    22:00 +5°C° 0 mm 1 mps 747 mmHg 76%
    23:00 +5°C° 0 mm 1 mps 747 mmHg 75%

    26 September, Thursday

    Time Temperature Precipitation Wind Pressure Humidity
    00:00 +5°C° 0 mm 1 mps 747 mmHg 75%
    01:00 +4°C° 0 mm 2 mps 747 mmHg 75%
    02:00 +3°C° 0 mm 2 mps 747 mmHg 75%
    03:00 +3°C° 0 mm 2 mps 747 mmHg 76%
    04:00 +3°C° 0 mm 2 mps 746 mmHg 77%
    05:00 +3°C° 0 mm 2 mps 746 mmHg 78%
    06:00 +4°C° 0 mm 2 mps 746 mmHg 73%
    07:00 +4°C° 0 mm 3 mps 746 mmHg 69%
    08:00 +5°C° 0 mm 3 mps 746 mmHg 65%
    09:00 +8°C° 0 mm 3 mps 746 mmHg 61%
    10:00 +9°C° 0 mm 3 mps 746 mmHg 58%
    11:00 +10°C° 0 mm 3 mps 746 mmHg 54%
    12:00 +11°C° 0 mm 3 mps 746 mmHg 55%
    13:00 +12°C° 0 mm 2 mps 745 mmHg 56%
    14:00 +12°C° 0 mm 2 mps 745 mmHg 58%
    15:00 +10°C° 0 mm 2 mps 744 mmHg 60%
    16:00 +10°C° 0 mm 2 mps 744 mmHg 62%
    17:00 +9°C° 0 mm 3 mps 744 mmHg 64%
    18:00 +9°C° 0 mm 3 mps 743 mmHg 64%
    19:00 +9°C° 0 mm 3 mps 743 mmHg 63%
    20:00 +9°C° 0 mm 3 mps 743 mmHg 63%
    21:00 +9°C° 0 mm 3 mps 743 mmHg 61%
    22:00 +9°C° 0 mm 3 mps 742 mmHg 59%
    23:00 +9°C° 0 mm 3 mps 742 mmHg 57%

    27 September, Friday

    Time Temperature Precipitation Wind Pressure Humidity
    00:00 +9°C° 0 mm 3 mps 742 mmHg 58%
    01:00 +8°C° 0 mm 3 mps 741 mmHg 60%
    02:00 +8°C° 0 mm 3 mps 741 mmHg 62%
    03:00 +8°C° 0 mm 3 mps 740 mmHg 63%
    04:00 +8°C° 0 mm 3 mps 740 mmHg 64%
    05:00 +8°C° 0 mm 3 mps 739 mmHg 65%
    06:00 +8°C° 0.3 mm 3 mps 739 mmHg 71%
    07:00 +7°C° 0.3 mm 3 mps 739 mmHg 77%
    08:00 +7°C° 0.3 mm 3 mps 739 mmHg 83%
    09:00 +7°C° 0.3 mm 2 mps 739 mmHg 85%
    10:00 +7°C° 0.3 mm 2 mps 739 mmHg 87%
    11:00 +7°C° 0.3 mm 2 mps 739 mmHg 89%
    12:00 +7°C° 0.6 mm 2 mps 739 mmHg 91%
    13:00 +7°C° 0.6 mm 2 mps 739 mmHg 93%
    14:00 +7°C° 0.6 mm 2 mps 739 mmHg 95%
    15:00 +7°C° 0.2 mm 2 mps 739 mmHg 94%
    16:00 +7°C° 0.2 mm 3 mps 739 mmHg 93%
    17:00 +6°C° 0.2 mm 4 mps 740 mmHg 92%
    18:00 +6°C° 0 mm 4 mps 740 mmHg 91%
    19:00 +6°C° 0 mm 4 mps 741 mmHg 91%
    20:00 +6°C° 0 mm 4 mps 742 mmHg 90%
    21:00 +6°C° 0 mm 4 mps 742 mmHg 90%
    22:00 +5°C° 0 mm 4 mps 743 mmHg 90%
    23:00 +5°C° 0 mm 4 mps 743 mmHg 91%
    Show more